This is the latest recevied weather packets stored in our database for station/object K8JCL-13. If no packets are shown the sender has not sent any weather packets the latest 10 day(s).
| Time | Temp. | Humidity | Pressure | Rain* | Wind** | Luminosity | Snow |
|---|---|---|---|---|---|---|---|
| 1777649384 | 8.89° C | 97% | 1012.7 hPa | 0 mm | - | 50 W/m² | - |
| 1777649082 | 8.89° C | 97% | 1012.6 hPa | 0 mm | - | 69 W/m² | - |
| 1777648780 | 8.89° C | 98% | 1012.9 hPa | 0 mm | - | 100 W/m² | - |
| 1777648477 | 8.89° C | 98% | 1012.5 hPa | 0 mm | - | 154 W/m² | - |
| 1777648173 | 8.33° C | 98% | 1012.4 hPa | 0 mm | - | 183 W/m² | - |
| 1777647868 | 8.33° C | 98% | 1012.5 hPa | 0 mm | - | 80 W/m² | - |
| 1777647565 | 7.78° C | 98% | 1012.5 hPa | 0 mm | - | 59 W/m² | - |
| 1777647262 | 7.78° C | 97% | 1012.7 hPa | 0 mm | - | 35 W/m² | - |
| 1777646960 | 7.78° C | 97% | 1012.5 hPa | 0 mm | - | 26 W/m² | - |
| 1777646655 | 7.78° C | 97% | 1012.6 hPa | 0 mm | - | 23 W/m² | - |
| 1777646351 | 7.78° C | 97% | 1012.6 hPa | 3.56 mm | - | 30 W/m² | - |
| 1777646047 | 7.78° C | 96% | 1012.3 hPa | 4.83 mm | - | 60 W/m² | - |
| 1777645744 | 7.78° C | 96% | 1012.3 hPa | 1.27 mm | - | 51 W/m² | - |
| 1777645441 | 7.78° C | 96% | 1012.3 hPa | 0 mm | - | 45 W/m² | - |
| 1777645137 | 7.78° C | 96% | 1012.4 hPa | 0 mm | - | 19 W/m² | - |
| 1777644834 | 7.78° C | 96% | 1012.1 hPa | 1.78 mm | - | 18 W/m² | - |
| 1777644532 | 7.78° C | 95% | 1012.2 hPa | 1.78 mm | - | 26 W/m² | - |
| 1777644227 | 7.78° C | 95% | 1012.2 hPa | 0 mm | - | 30 W/m² | - |
| 1777643923 | 8.33° C | 95% | 1012.1 hPa | 0 mm | - | 24 W/m² | - |
| 1777643622 | 8.33° C | 94% | 1011.9 hPa | 1.27 mm | - | 31 W/m² | - |
| 1777643319 | 7.78° C | 93% | 1012.2 hPa | 1.27 mm | - | 39 W/m² | - |
| 1777643015 | 8.33° C | 91% | 1012.3 hPa | 3.05 mm | - | 21 W/m² | - |
| 1777642711 | 8.33° C | 90% | 1012.4 hPa | 3.05 mm | - | 34 W/m² | - |
| 1777642409 | 8.33° C | 89% | 1012.4 hPa | 1.27 mm | - | 14 W/m² | - |
| 1777642105 | 8.33° C | 87% | 1012.2 hPa | 0 mm | - | 14 W/m² | - |
* Rain latest hour (hover to see other rain measurements)
** Current wind speed in m/s (hover to see current wind gust speed)